| time (UTC) | temp F | wind direction | speed MPH | gust MPH | rain 1hr in | rain 24hr in | rain mn in | humidity % | barometer mb |
| 20260905083223 | 81 | 219 | 0.0 | 0.0 | 0.00 | 0.00 | 0.00 | 68 | 1011.6 |
| 20260905082703 | 82 | 219 | 0.0 | 0.0 | 0.00 | 0.00 | 0.00 | 67 | 1011.5 |
| 20260905082201 | 82 | 219 | 0.0 | 0.0 | 0.00 | 0.00 | 0.00 | 67 | 1011.6 |
| 20260905081640 | 82 | 219 | 0.0 | 0.0 | 0.00 | 0.00 | 0.00 | 67 | 1011.5 |
| 20260905081115 | 82 | 219 | 0.0 | 0.0 | 0.00 | 0.00 | 0.00 | 67 | 1011.6 |
| 20260905080554 | 82 | 215 | 0.0 | 0.0 | 0.00 | 0.00 | 0.00 | 67 | 1011.6 |
| 20260905080032 | 82 | 184 | 0.0 | 0.0 | 0.00 | 0.00 | 0.00 | 67 | 1011.5 |
| 20260905075514 | 82 | 270 | 0.0 | 3.0 | 0.00 | 0.00 | 0.00 | 67 | 1011.6 |
| 20260905074953 | 82 | 252 | 0.0 | 3.0 | 0.00 | 0.00 | 0.00 | 67 | 1011.6 |
| 20260905074453 | 82 | 114 | 0.0 | 2.0 | 0.00 | 0.00 | 0.00 | 68 | 1011.6 |
| 20260905073951 | 81 | 123 | 0.0 | 2.0 | 0.00 | 0.00 | 0.00 | 68 | 1011.7 |
| 20260905073452 | 81 | 211 | 0.0 | 1.0 | 0.00 | 0.00 | 0.00 | 68 | 1011.7 |
| 20260905072948 | 81 | 221 | 0.0 | 0.0 | 0.00 | 0.00 | 0.00 | 68 | 1011.9 |
| 20260905072706 | 81 | 226 | 0.0 | 0.0 | 0.00 | 0.00 | 0.00 | 67 | 1012.0 |
| 20260905072142 | 82 | 226 | 0.0 | 0.0 | 0.00 | 0.00 | 0.00 | 66 | 1012.1 |
| 20260905071639 | 82 | 226 | 0.0 | 0.0 | 0.00 | 0.00 | 0.00 | 66 | 1012.2 |
| 20260905070920 | 82 | 226 | 0.0 | 0.0 | 0.00 | 0.00 | 0.00 | 66 | 1012.3 |
| 20260905070415 | 82 | 226 | 0.0 | 0.0 | 0.00 | 0.00 | 0.00 | 65 | 1012.3 |
| 20260905070125 | 83 | 226 | 0.0 | 0.0 | 0.00 | 0.00 | 0.00 | 64 | 1012.3 |
| 20260905065346 | 83 | 226 | 0.0 | 0.0 | 0.00 | 0.00 | 0.00 | 64 | 1012.3 |
| 20260905064843 | 83 | 226 | 0.0 | 0.0 | 0.00 | 0.00 | 0.00 | 63 | 1012.3 |
| 20260905064825 | 84 | 226 | 0.0 | 0.0 | 0.00 | 0.00 | 0.00 | 62 | 1012.3 |
| 20260905063819 | 84 | 226 | 0.0 | 0.0 | 0.00 | 0.00 | 0.00 | 62 | 1012.3 |
| 20260905063252 | 84 | 226 | 0.0 | 2.0 | 0.00 | 0.00 | 0.00 | 61 | 1012.4 |
| 20260905062726 | 84 | 226 | 0.0 | 1.0 | 0.00 | 0.00 | 0.00 | 61 | 1012.3 |
| 20260905062213 | 84 | 195 | 0.0 | 2.0 | 0.00 | 0.00 | 0.00 | 61 | 1012.4 |
| 20260905061714 | 84 | 217 | 0.0 | 1.0 | 0.00 | 0.00 | 0.00 | 61 | 1012.3 |
| 20260905061149 | 85 | 215 | 0.0 | 0.0 | 0.00 | 0.00 | 0.00 | 60 | 1012.3 |
| 20260905060621 | 85 | 215 | 0.0 | 1.0 | 0.00 | 0.00 | 0.00 | 60 | 1012.3 |
| 20260905060123 | 85 | 215 | 0.0 | 2.0 | 0.00 | 0.00 | 0.00 | 60 | 1012.3 |
| 20260905055553 | 85 | 152 | 0.0 | 2.0 | 0.00 | 0.00 | 0.00 | 59 | 1012.2 |
| 20260905055052 | 85 | 266 | 0.0 | 3.0 | 0.00 | 0.00 | 0.00 | 59 | 1012.2 |
| 20260905054546 | 85 | 222 | 1.0 | 6.0 | 0.00 | 0.00 | 0.00 | 59 | 1012.1 |
| 20260905054022 | 85 | 248 | 1.0 | 6.0 | 0.00 | 0.00 | 0.00 | 59 | 1012.1 |
| 20260905053455 | 85 | 193 | 1.0 | 4.0 | 0.00 | 0.00 | 0.00 | 58 | 1012.0 |
| 20260905052927 | 86 | 122 | 1.0 | 4.0 | 0.00 | 0.00 | 0.00 | 58 | 1011.9 |
| 20260905052423 | 86 | 153 | 1.0 | 5.0 | 0.00 | 0.00 | 0.00 | 58 | 1011.9 |
| 20260905051920 | 86 | 229 | 1.0 | 6.0 | 0.00 | 0.00 | 0.00 | 58 | 1011.9 |
| 20260905051419 | 86 | 210 | 1.0 | 6.0 | 0.00 | 0.00 | 0.00 | 58 | 1011.7 |
| 20260905050852 | 86 | 177 | 1.0 | 3.0 | 0.00 | 0.00 | 0.00 | 58 | 1011.7 |
| 20260905050325 | 86 | 215 | 1.0 | 3.0 | 0.00 | 0.00 | 0.00 | 58 | 1011.6 |
| 20260905045758 | 86 | 235 | 1.0 | 4.0 | 0.00 | 0.00 | 0.00 | 58 | 1011.6 |
| 20260905045520 | 86 | 259 | 0.0 | 4.0 | 0.00 | 0.00 | 0.00 | 57 | 1011.7 |
| 20260905044747 | 86 | 149 | 1.0 | 3.0 | 0.00 | 0.00 | 0.00 | 57 | 1011.9 |
| 20260905044243 | 87 | 125 | 1.0 | 5.0 | 0.00 | 0.00 | 0.00 | 56 | 1011.9 |
| 20260905044003 | 87 | 160 | 2.0 | 6.0 | 0.00 | 0.00 | 0.00 | 56 | 1011.9 |
| 20260905043215 | 87 | 223 | 2.0 | 6.0 | 0.00 | 0.00 | 0.00 | 55 | 1011.9 |
| 20260905043151 | 87 | 148 | 2.0 | 6.0 | 0.00 | 0.00 | 0.00 | 55 | 1011.7 |
| 20260905042206 | 87 | 248 | 1.0 | 4.0 | 0.00 | 0.00 | 0.00 | 54 | 1011.7 |
| 20260905041637 | 87 | 233 | 2.0 | 5.0 | 0.00 | 0.00 | 0.00 | 54 | 1011.7 |
| 20260905041133 | 87 | 220 | 2.0 | 5.0 | 0.00 | 0.00 | 0.00 | 54 | 1011.9 |
| 20260905040631 | 87 | 165 | 1.0 | 6.0 | 0.00 | 0.00 | 0.00 | 54 | 1011.7 |
| 20260905040129 | 87 | 162 | 1.0 | 6.0 | 0.00 | 0.00 | 0.00 | 54 | 1011.9 |
| 20260905035628 | 87 | 161 | 1.0 | 4.0 | 0.00 | 0.00 | 0.00 | 55 | 1012.0 |
| 20260905035324 | 88 | 219 | 1.0 | 4.0 | 0.00 | 0.00 | 0.00 | 55 | 1012.0 |
| 20260905035040 | 88 | 136 | 1.0 | 5.0 | 0.00 | 0.00 | 0.00 | 55 | 1012.0 |
| 20260905034252 | 88 | 164 | 0.0 | 3.0 | 0.00 | 0.00 | 0.00 | 55 | 1011.9 |
| 20260905033744 | 88 | 115 | 0.0 | 3.0 | 0.00 | 0.00 | 0.00 | 55 | 1011.9 |
| 20260905033025 | 88 | 110 | 0.0 | 3.0 | 0.00 | 0.00 | 0.00 | 55 | 1011.9 |
| 20260905032457 | 88 | 124 | 0.0 | 3.0 | 0.00 | 0.00 | 0.00 | 55 | 1011.9 |
| 20260905032225 | 88 | 119 | 0.0 | 3.0 | 0.00 | 0.00 | 0.00 | 54 | 1011.7 |
| 20260905031650 | 89 | 127 | 0.0 | 4.0 | 0.00 | 0.00 | 0.00 | 53 | 1011.7 |
| 20260905030924 | 89 | 139 | 1.0 | 4.0 | 0.00 | 0.00 | 0.00 | 53 | 1011.7 |
| 20260905030357 | 89 | 148 | 1.0 | 2.0 | 0.00 | 0.00 | 0.00 | 52 | 1011.7 |
| 20260905025829 | 89 | 111 | 1.0 | 5.0 | 0.00 | 0.00 | 0.00 | 50 | 1011.7 |
| 20260905025329 | 89 | 117 | 1.0 | 5.0 | 0.00 | 0.00 | 0.00 | 50 | 1011.6 |
| 20260905024801 | 89 | 100 | 0.0 | 3.0 | 0.00 | 0.00 | 0.00 | 50 | 1011.5 |
| 20260905024258 | 89 | 119 | 0.0 | 3.0 | 0.00 | 0.00 | 0.00 | 49 | 1011.5 |
| 20260905023755 | 89 | 124 | 0.0 | 4.0 | 0.00 | 0.00 | 0.00 | 49 | 1011.4 |
| 20260905023544 | 89 | 139 | 1.0 | 4.0 | 0.00 | 0.00 | 0.00 | 49 | 1011.3 |
| 20260905023445 | 89 | 141 | 1.0 | 5.0 | 0.00 | 0.00 | 0.00 | 49 | 1011.3 |
| 20260905022223 | 89 | 129 | 1.0 | 5.0 | 0.00 | 0.00 | 0.00 | 49 | 1011.1 |
| 20260905021655 | 90 | 131 | 0.0 | 4.0 | 0.00 | 0.00 | 0.00 | 49 | 1011.1 |
| 20260905021637 | 90 | 131 | 0.0 | 2.0 | 0.00 | 0.00 | 0.00 | 49 | 1011.0 |
| 20260905020627 | 90 | 131 | 0.0 | 3.0 | 0.00 | 0.00 | 0.00 | 49 | 1010.9 |
| 20260905020116 | 90 | 131 | 0.0 | 3.0 | 0.00 | 0.00 | 0.00 | 49 | 1010.8 |
| 20260905015615 | 90 | 135 | 1.0 | 4.0 | 0.00 | 0.00 | 0.00 | 49 | 1010.7 |
| 20260905015115 | 91 | 150 | 1.0 | 4.0 | 0.00 | 0.00 | 0.00 | 49 | 1010.7 |
| 20260905014756 | 91 | 117 | 0.0 | 5.0 | 0.00 | 0.00 | 0.00 | 48 | 1010.6 |
| 20260905014646 | 91 | 137 | 1.0 | 5.0 | 0.00 | 0.00 | 0.00 | 48 | 1010.6 |
| 20260905013604 | 91 | 139 | 1.0 | 4.0 | 0.00 | 0.00 | 0.00 | 47 | 1010.5 |
| 20260905013105 | 91 | 108 | 1.0 | 6.0 | 0.00 | 0.00 | 0.00 | 46 | 1010.5 |
| 20260905012541 | 91 | 144 | 1.0 | 6.0 | 0.00 | 0.00 | 0.00 | 46 | 1010.5 |
| 20260905012044 | 92 | 139 | 1.0 | 5.0 | 0.00 | 0.00 | 0.00 | 45 | 1010.5 |
| 20260905011539 | 92 | 132 | 1.0 | 5.0 | 0.00 | 0.00 | 0.00 | 44 | 1010.5 |
| 20260905011042 | 92 | 143 | 1.0 | 5.0 | 0.00 | 0.00 | 0.00 | 44 | 1010.3 |
| 20260905010741 | 92 | 129 | 2.0 | 5.0 | 0.00 | 0.00 | 0.00 | 43 | 1010.3 |
| 20260905005955 | 92 | 131 | 2.0 | 5.0 | 0.00 | 0.00 | 0.00 | 43 | 1010.3 |
| 20260905005449 | 93 | 121 | 2.0 | 5.0 | 0.00 | 0.00 | 0.00 | 42 | 1010.1 |
| 20260905004931 | 93 | 99 | 3.0 | 5.0 | 0.00 | 0.00 | 0.00 | 42 | 1010.1 |
| 20260905004431 | 93 | 132 | 2.0 | 6.0 | 0.00 | 0.00 | 0.00 | 41 | 1010.1 |
| 20260905003905 | 94 | 150 | 2.0 | 7.0 | 0.00 | 0.00 | 0.00 | 41 | 1010.1 |
| 20260905003353 | 94 | 139 | 3.0 | 9.0 | 0.00 | 0.00 | 0.00 | 40 | 1010.1 |
| 20260905003109 | 94 | 120 | 3.0 | 9.0 | 0.00 | 0.00 | 0.00 | 40 | 1010.1 |
| 20260905002353 | 95 | 110 | 2.0 | 7.0 | 0.00 | 0.00 | 0.00 | 40 | 1010.0 |
| 20260905001825 | 95 | 155 | 2.0 | 7.0 | 0.00 | 0.00 | 0.00 | 40 | 1009.9 |
| 20260905001312 | 95 | 158 | 2.0 | 7.0 | 0.00 | 0.00 | 0.00 | 39 | 1009.9 |
| 20260905000748 | 96 | 108 | 2.0 | 7.0 | 0.00 | 0.00 | 0.00 | 38 | 1009.9 |
| 20260905000248 | 96 | 139 | 3.0 | 7.0 | 0.00 | 0.00 | 0.00 | 38 | 1009.9 |
| 20260904235748 | 96 | 122 | 3.0 | 7.0 | 0.00 | 0.00 | 0.00 | 38 | 1009.8 |
| 20260904235504 | 96 | 111 | 3.0 | 8.0 | 0.00 | 0.00 | 0.00 | 38 | 1009.9 |
| 20260904234746 | 96 | 176 | 4.0 | 8.0 | 0.00 | 0.00 | 0.00 | 38 | 1009.9 |
| 20260904234507 | 96 | 115 | 3.0 | 8.0 | 0.00 | 0.00 | 0.00 | 38 | 1009.8 |
| 20260904233742 | 96 | 125 | 3.0 | 8.0 | 0.00 | 0.00 | 0.00 | 38 | 1009.8 |
| 20260904233245 | 97 | 159 | 3.0 | 8.0 | 0.00 | 0.00 | 0.00 | 38 | 1009.8 |
| 20260904232720 | 97 | 127 | 3.0 | 8.0 | 0.00 | 0.00 | 0.00 | 38 | 1009.8 |
| 20260904232219 | 97 | 186 | 3.0 | 8.0 | 0.00 | 0.00 | 0.00 | 38 | 1009.7 |
| 20260904231654 | 97 | 143 | 3.0 | 8.0 | 0.00 | 0.00 | 0.00 | 38 | 1009.8 |
| 20260904231126 | 97 | 139 | 4.0 | 10.0 | 0.00 | 0.00 | 0.00 | 38 | 1009.8 |
| 20260904230623 | 97 | 152 | 5.0 | 11.0 | 0.00 | 0.00 | 0.00 | 37 | 1009.8 |
| 20260904230053 | 97 | 103 | 4.0 | 8.0 | 0.00 | 0.00 | 0.00 | 37 | 1009.8 |
| 20260904225534 | 97 | 113 | 4.0 | 9.0 | 0.00 | 0.00 | 0.00 | 38 | 1009.8 |
| 20260904225034 | 98 | 113 | 4.0 | 10.0 | 0.00 | 0.00 | 0.00 | 37 | 1009.9 |
| 20260904224532 | 98 | 229 | 4.0 | 10.0 | 0.00 | 0.00 | 0.00 | 37 | 1009.9 |
| 20260904224030 | 97 | 129 | 3.0 | 9.0 | 0.00 | 0.00 | 0.00 | 38 | 1009.9 |
| 20260904223502 | 97 | 153 | 4.0 | 8.0 | 0.00 | 0.00 | 0.00 | 38 | 1010.0 |
| 20260904223007 | 98 | 187 | 4.0 | 10.0 | 0.00 | 0.00 | 0.00 | 37 | 1010.0 |
| 20260904222433 | 98 | 129 | 4.0 | 10.0 | 0.00 | 0.00 | 0.00 | 38 | 1010.0 |
| 20260904221915 | 99 | 144 | 4.0 | 8.0 | 0.00 | 0.00 | 0.00 | 38 | 1010.0 |
| 20260904221414 | 99 | 148 | 3.0 | 9.0 | 0.00 | 0.00 | 0.00 | 39 | 1009.9 |
| 20260904220847 | 99 | 214 | 3.0 | 7.0 | 0.00 | 0.00 | 0.00 | 38 | 1009.9 |
| 20260904220345 | 98 | 117 | 4.0 | 9.0 | 0.00 | 0.00 | 0.00 | 38 | 1009.9 |
| 20260904215842 | 98 | 236 | 4.0 | 9.0 | 0.00 | 0.00 | 0.00 | 38 | 1010.0 |
| 20260904215314 | 98 | 179 | 4.0 | 9.0 | 0.00 | 0.00 | 0.00 | 39 | 1010.1 |
| 20260904214748 | 98 | 111 | 5.0 | 12.0 | 0.00 | 0.00 | 0.00 | 39 | 1010.1 |
| 20260904214222 | 98 | 258 | 5.0 | 12.0 | 0.00 | 0.00 | 0.00 | 38 | 1010.2 |
| 20260904213654 | 98 | 147 | 5.0 | 11.0 | 0.00 | 0.00 | 0.00 | 40 | 1010.2 |
| 20260904213149 | 98 | 106 | 5.0 | 11.0 | 0.00 | 0.00 | 0.00 | 39 | 1010.2 |
| 20260904212645 | 98 | 129 | 4.0 | 11.0 | 0.00 | 0.00 | 0.00 | 39 | 1010.3 |
| 20260904212142 | 98 | 142 | 4.0 | 9.0 | 0.00 | 0.00 | 0.00 | 39 | 1010.4 |
| 20260904211639 | 98 | 141 | 5.0 | 9.0 | 0.00 | 0.00 | 0.00 | 38 | 1010.4 |
| 20260904211133 | 98 | 201 | 5.0 | 11.0 | 0.00 | 0.00 | 0.00 | 38 | 1010.5 |
| 20260904210631 | 98 | 70 | 5.0 | 11.0 | 0.00 | 0.00 | 0.00 | 38 | 1010.5 |
| 20260904210110 | 98 | 194 | 4.0 | 11.0 | 0.00 | 0.00 | 0.00 | 37 | 1010.6 |
| 20260904205816 | 98 | 136 | 4.0 | 11.0 | 0.00 | 0.00 | 0.00 | 38 | 1010.6 |
| 20260904205054 | 99 | 191 | 4.0 | 10.0 | 0.00 | 0.00 | 0.00 | 37 | 1010.7 |
| 20260904204549 | 99 | 130 | 4.0 | 10.0 | 0.00 | 0.00 | 0.00 | 37 | 1010.7 |
| 20260904204048 | 98 | 189 | 4.0 | 10.0 | 0.00 | 0.00 | 0.00 | 37 | 1010.7 |
| 20260904203518 | 99 | 120 | 4.0 | 10.0 | 0.00 | 0.00 | 0.00 | 36 | 1010.8 |
| 20260904203018 | 99 | 141 | 4.0 | 9.0 | 0.00 | 0.00 | 0.00 | 38 | 1010.9 |
| 20260904202454 | 99 | 134 | 4.0 | 9.0 | 0.00 | 0.00 | 0.00 | 38 | 1011.0 |
| 20260904201924 | 99 | 212 | 3.0 | 13.0 | 0.00 | 0.00 | 0.00 | 37 | 1011.0 |
| 20260904201620 | 98 | 86 | 4.0 | 13.0 | 0.00 | 0.00 | 0.00 | 38 | 1011.1 |
| 20260904200833 | 98 | 145 | 5.0 | 11.0 | 0.00 | 0.00 | 0.00 | 39 | 1011.2 |
| 20260904200306 | 98 | 108 | 5.0 | 16.0 | 0.00 | 0.00 | 0.00 | 38 | 1011.2 |
| 20260904195738 | 98 | 109 | 5.0 | 14.0 | 0.00 | 0.00 | 0.00 | 38 | 1011.2 |
| 20260904195237 | 97 | 127 | 5.0 | 12.0 | 0.00 | 0.00 | 0.00 | 39 | 1011.3 |
| 20260904195159 | 98 | 255 | 4.0 | 12.0 | 0.00 | 0.00 | 0.00 | 38 | 1011.5 |
| 20260904194152 | 97 | 166 | 4.0 | 10.0 | 0.00 | 0.00 | 0.00 | 40 | 1011.5 |
| 20260904194137 | 98 | 167 | 5.0 | 12.0 | 0.00 | 0.00 | 0.00 | 39 | 1011.6 |
| 20260904193144 | 97 | 137 | 4.0 | 13.0 | 0.00 | 0.00 | 0.00 | 40 | 1011.7 |
| 20260904192910 | 98 | 131 | 3.0 | 11.0 | 0.00 | 0.00 | 0.00 | 39 | 1011.9 |
| 20260904192340 | 98 | 209 | 3.0 | 9.0 | 0.00 | 0.00 | 0.00 | 40 | 1011.9 |
| 20260904191547 | 97 | 207 | 3.0 | 10.0 | 0.00 | 0.00 | 0.00 | 40 | 1012.0 |
| 20260904191018 | 97 | 233 | 4.0 | 10.0 | 0.00 | 0.00 | 0.00 | 42 | 1012.0 |
| 20260904190517 | 97 | 141 | 4.0 | 9.0 | 0.00 | 0.00 | 0.00 | 41 | 1012.1 |
| 20260904190013 | 97 | 120 | 4.0 | 9.0 | 0.00 | 0.00 | 0.00 | 40 | 1012.2 |
| 20260904185509 | 97 | 155 | 4.0 | 12.0 | 0.00 | 0.00 | 0.00 | 41 | 1012.2 |
| 20260904185009 | 98 | 172 | 4.0 | 12.0 | 0.00 | 0.00 | 0.00 | 40 | 1012.2 |
| 20260904184443 | 97 | 91 | 4.0 | 11.0 | 0.00 | 0.00 | 0.00 | 43 | 1012.2 |
| 20260904183918 | 96 | 172 | 4.0 | 11.0 | 0.00 | 0.00 | 0.00 | 43 | 1012.3 |
| 20260904183348 | 97 | 135 | 3.0 | 9.0 | 0.00 | 0.00 | 0.00 | 42 | 1012.5 |
| 20260904183115 | 97 | 114 | 2.0 | 9.0 | 0.00 | 0.00 | 0.00 | 41 | 1012.5 |
| 20260904182318 | 96 | 221 | 3.0 | 9.0 | 0.00 | 0.00 | 0.00 | 43 | 1012.5 |
| 20260904181751 | 96 | 136 | 3.0 | 9.0 | 0.00 | 0.00 | 0.00 | 44 | 1012.7 |
| 20260904181513 | 96 | 199 | 3.0 | 9.0 | 0.00 | 0.00 | 0.00 | 44 | 1012.8 |
| 20260904180747 | 96 | 141 | 3.0 | 9.0 | 0.00 | 0.00 | 0.00 | 43 | 1012.8 |
| 20260904180218 | 95 | 146 | 3.0 | 10.0 | 0.00 | 0.00 | 0.00 | 44 | 1012.9 |
| 20260904175717 | 95 | 114 | 4.0 | 11.0 | 0.00 | 0.00 | 0.00 | 46 | 1013.1 |
| 20260904175150 | 95 | 114 | 4.0 | 9.0 | 0.00 | 0.00 | 0.00 | 44 | 1013.0 |
| 20260904174625 | 96 | 148 | 4.0 | 9.0 | 0.00 | 0.00 | 0.00 | 43 | 1013.1 |
| 20260904174326 | 95 | 138 | 4.0 | 9.0 | 0.00 | 0.00 | 0.00 | 46 | 1013.1 |
| 20260904173541 | 95 | 111 | 3.0 | 12.0 | 0.00 | 0.00 | 0.00 | 45 | 1013.1 |
| 20260904173259 | 95 | 226 | 2.0 | 9.0 | 0.00 | 0.00 | 0.00 | 43 | 1013.3 |
| 20260904172541 | 95 | 221 | 2.0 | 9.0 | 0.00 | 0.00 | 0.00 | 46 | 1013.4 |
| 20260904172243 | 94 | 150 | 3.0 | 9.0 | 0.00 | 0.00 | 0.00 | 47 | 1013.5 |
| 20260904171511 | 94 | 234 | 4.0 | 9.0 | 0.00 | 0.00 | 0.00 | 46 | 1013.5 |
| 20260904170942 | 94 | 101 | 2.0 | 7.0 | 0.00 | 0.00 | 0.00 | 45 | 1013.5 |
| 20260904170440 | 93 | 230 | 2.0 | 7.0 | 0.00 | 0.00 | 0.00 | 49 | 1013.5 |
| 20260904165939 | 93 | 146 | 3.0 | 7.0 | 0.00 | 0.00 | 0.00 | 49 | 1013.6 |
| 20260904165410 | 92 | 105 | 3.0 | 7.0 | 0.00 | 0.00 | 0.00 | 51 | 1013.6 |
| 20260904164908 | 92 | 212 | 3.0 | 10.0 | 0.00 | 0.00 | 0.00 | 52 | 1013.7 |
| 20260904164342 | 92 | 223 | 3.0 | 10.0 | 0.00 | 0.00 | 0.00 | 52 | 1013.7 |
| 20260904163841 | 91 | 244 | 3.0 | 9.0 | 0.00 | 0.00 | 0.00 | 53 | 1013.7 |
| 20260904163343 | 91 | 191 | 3.0 | 9.0 | 0.00 | 0.00 | 0.00 | 55 | 1013.7 |
| 20260904163105 | 90 | 219 | 4.0 | 8.0 | 0.00 | 0.00 | 0.00 | 55 | 1013.8 |
| 20260904162345 | 90 | 238 | 3.0 | 7.0 | 0.00 | 0.00 | 0.00 | 55 | 1013.7 |
| 20260904161818 | 90 | 214 | 4.0 | 11.0 | 0.00 | 0.00 | 0.00 | 55 | 1013.7 |
| 20260904161318 | 90 | 136 | 4.0 | 11.0 | 0.00 | 0.00 | 0.00 | 58 | 1013.7 |
| 20260904161245 | 90 | 122 | 3.0 | 9.0 | 0.00 | 0.00 | 0.00 | 58 | 1013.7 |
| 20260904160305 | 90 | 128 | 4.0 | 10.0 | 0.00 | 0.00 | 0.00 | 58 | 1013.8 |
| 20260904155736 | 89 | 139 | 4.0 | 10.0 | 0.00 | 0.00 | 0.00 | 58 | 1013.8 |
| 20260904155234 | 89 | 149 | 4.0 | 10.0 | 0.00 | 0.00 | 0.00 | 59 | 1013.7 |
| 20260904154707 | 89 | 233 | 4.0 | 10.0 | 0.00 | 0.00 | 0.00 | 60 | 1013.7 |
| 20260904154206 | 88 | 207 | 4.0 | 10.0 | 0.00 | 0.00 | 0.00 | 61 | 1013.7 |
| 20260904153638 | 88 | 185 | 3.0 | 10.0 | 0.00 | 0.00 | 0.00 | 62 | 1013.6 |
| 20260904153134 | 87 | 217 | 5.0 | 8.0 | 0.00 | 0.00 | 0.00 | 65 | 1013.7 |
| 20260904152608 | 87 | 226 | 6.0 | 12.0 | 0.00 | 0.00 | 0.00 | 65 | 1013.6 |
| 20260904152306 | 87 | 245 | 4.0 | 11.0 | 0.00 | 0.00 | 0.00 | 65 | 1013.6 |
| 20260904151514 | 86 | 135 | 3.0 | 10.0 | 0.00 | 0.00 | 0.00 | 68 | 1013.5 |
| 20260904150954 | 86 | 210 | 3.0 | 10.0 | 0.00 | 0.00 | 0.00 | 69 | 1013.5 |
| 20260904150429 | 85 | 181 | 3.0 | 8.0 | 0.00 | 0.00 | 0.00 | 70 | 1013.5 |
| 20260904145902 | 85 | 195 | 3.0 | 8.0 | 0.00 | 0.00 | 0.00 | 71 | 1013.6 |
| 20260904145357 | 84 | 114 | 3.0 | 8.0 | 0.00 | 0.00 | 0.00 | 72 | 1013.5 |
| 20260904144857 | 84 | 236 | 4.0 | 10.0 | 0.00 | 0.00 | 0.00 | 73 | 1013.6 |
| 20260904144829 | 83 | 167 | 4.0 | 10.0 | 0.00 | 0.00 | 0.00 | 75 | 1013.6 |
| 20260904143809 | 83 | 196 | 4.0 | 9.0 | 0.00 | 0.00 | 0.00 | 75 | 1013.6 |
| 20260904143236 | 83 | 226 | 4.0 | 7.0 | 0.00 | 0.00 | 0.00 | 75 | 1013.7 |
| 20260904142925 | 83 | 218 | 4.0 | 8.0 | 0.00 | 0.00 | 0.00 | 76 | 1013.7 |
| 20260904142206 | 83 | 202 | 3.0 | 8.0 | 0.00 | 0.00 | 0.00 | 77 | 1013.7 |
| 20260904141645 | 83 | 207 | 3.0 | 8.0 | 0.00 | 0.00 | 0.00 | 78 | 1013.6 |
| 20260904141138 | 82 | 120 | 3.0 | 7.0 | 0.00 | 0.00 | 0.00 | 78 | 1013.5 |
| 20260904140640 | 82 | 212 | 4.0 | 9.0 | 0.00 | 0.00 | 0.00 | 79 | 1013.6 |
| 20260904140136 | 82 | 252 | 4.0 | 9.0 | 0.00 | 0.00 | 0.00 | 79 | 1013.6 |
| 20260904135635 | 81 | 222 | 3.0 | 8.0 | 0.00 | 0.00 | 0.00 | 80 | 1013.5 |
| 20260904135340 | 81 | 146 | 3.0 | 8.0 | 0.00 | 0.00 | 0.00 | 81 | 1013.5 |
| 20260904134842 | 80 | 217 | 4.0 | 11.0 | 0.00 | 0.00 | 0.00 | 82 | 1013.4 |
| 20260904134049 | 80 | 134 | 3.0 | 9.0 | 0.00 | 0.00 | 0.00 | 83 | 1013.3 |
| 20260904133752 | 80 | 135 | 3.0 | 11.0 | 0.00 | 0.00 | 0.00 | 84 | 1013.3 |
| 20260904133009 | 79 | 257 | 3.0 | 11.0 | 0.00 | 0.00 | 0.00 | 84 | 1013.3 |
| 20260904132511 | 79 | 115 | 3.0 | 9.0 | 0.00 | 0.00 | 0.00 | 84 | 1013.2 |
| 20260904131949 | 79 | 265 | 3.0 | 9.0 | 0.00 | 0.00 | 0.00 | 85 | 1013.2 |
| 20260904131429 | 79 | 238 | 2.0 | 6.0 | 0.00 | 0.00 | 0.00 | 85 | 1013.2 |
| 20260904130929 | 79 | 117 | 2.0 | 8.0 | 0.00 | 0.00 | 0.00 | 85 | 1013.1 |
| 20260904130429 | 79 | 112 | 2.0 | 8.0 | 0.00 | 0.00 | 0.00 | 85 | 1013.1 |
| 20260904125935 | 78 | 165 | 2.0 | 5.0 | 0.00 | 0.00 | 0.00 | 85 | 1013.0 |
| 20260904125629 | 78 | 173 | 2.0 | 6.0 | 0.00 | 0.00 | 0.00 | 85 | 1013.0 |
| 20260904124840 | 78 | 133 | 2.0 | 6.0 | 0.00 | 0.00 | 0.00 | 85 | 1012.9 |
| 20260904124339 | 78 | 135 | 2.0 | 8.0 | 0.00 | 0.00 | 0.00 | 85 | 1012.9 |
| 20260904123814 | 78 | 135 | 2.0 | 6.0 | 0.00 | 0.00 | 0.00 | 86 | 1012.8 |
| 20260904123304 | 78 | 127 | 1.0 | 5.0 | 0.00 | 0.00 | 0.00 | 86 | 1012.8 |
| 20260904122805 | 78 | 153 | 1.0 | 4.0 | 0.00 | 0.00 | 0.00 | 86 | 1012.9 |
| 20260904122248 | 77 | 165 | 1.0 | 5.0 | 0.00 | 0.00 | 0.00 | 86 | 1012.9 |
| 20260904121743 | 77 | 136 | 1.0 | 5.0 | 0.00 | 0.00 | 0.00 | 86 | 1012.8 |
| 20260904121240 | 77 | 138 | 0.0 | 4.0 | 0.00 | 0.00 | 0.00 | 86 | 1012.8 |
| 20260904120717 | 77 | 120 | 0.0 | 3.0 | 0.00 | 0.00 | 0.00 | 86 | 1012.8 |
| 20260904120218 | 77 | 250 | 1.0 | 3.0 | 0.00 | 0.00 | 0.00 | 86 | 1012.8 |
| 20260904115654 | 77 | 121 | 1.0 | 6.0 | 0.00 | 0.00 | 0.00 | 86 | 1012.8 |
| 20260904115133 | 77 | 125 | 2.0 | 5.0 | 0.00 | 0.00 | 0.00 | 86 | 1012.7 |
| 20260904114604 | 77 | 142 | 1.0 | 5.0 | 0.00 | 0.00 | 0.00 | 86 | 1012.7 |
| 20260904114102 | 77 | 153 | 1.0 | 4.0 | 0.00 | 0.00 | 0.00 | 86 | 1012.6 |
| 20260904113534 | 77 | 135 | 1.0 | 4.0 | 0.00 | 0.00 | 0.00 | 85 | 1012.5 |
| 20260904113009 | 77 | 126 | 1.0 | 5.0 | 0.00 | 0.00 | 0.00 | 85 | 1012.5 |
| 20260904112505 | 77 | 127 | 1.0 | 5.0 | 0.00 | 0.00 | 0.00 | 85 | 1012.4 |
| 20260904112233 | 77 | 131 | 0.0 | 5.0 | 0.00 | 0.00 | 0.00 | 84 | 1012.4 |
| 20260904111459 | 78 | 134 | 1.0 | 6.0 | 0.00 | 0.00 | 0.00 | 84 | 1012.4 |
| 20260904111226 | 78 | 164 | 1.0 | 7.0 | 0.00 | 0.00 | 0.00 | 84 | 1012.3 |
| 20260904110430 | 78 | 113 | 1.0 | 7.0 | 0.00 | 0.00 | 0.00 | 84 | 1012.3 |
| 20260904105926 | 78 | 141 | 2.0 | 7.0 | 0.00 | 0.00 | 0.00 | 84 | 1012.3 |
| 20260904105626 | 78 | 108 | 1.0 | 4.0 | 0.00 | 0.00 | 0.00 | 84 | 1012.4 |
| 20260904104856 | 78 | 136 | 0.0 | 2.0 | 0.00 | 0.00 | 0.00 | 83 | 1012.4 |
| 20260904104356 | 78 | 122 | 1.0 | 5.0 | 0.00 | 0.00 | 0.00 | 83 | 1012.3 |
| 20260904103832 | 78 | 117 | 1.0 | 5.0 | 0.00 | 0.00 | 0.00 | 83 | 1012.3 |
| 20260904103524 | 78 | 134 | 1.0 | 4.0 | 0.00 | 0.00 | 0.00 | 83 | 1012.2 |
| 20260904102803 | 78 | 231 | 2.0 | 6.0 | 0.00 | 0.00 | 0.00 | 83 | 1012.2 |
| 20260904102236 | 78 | 149 | 1.0 | 6.0 | 0.00 | 0.00 | 0.00 | 83 | 1012.2 |
| 20260904101708 | 78 | 143 | 1.0 | 4.0 | 0.00 | 0.00 | 0.00 | 82 | 1012.1 |
| 20260904101141 | 78 | 124 | 1.0 | 5.0 | 0.00 | 0.00 | 0.00 | 82 | 1012.2 |
| 20260904100639 | 78 | 101 | 1.0 | 5.0 | 0.00 | 0.00 | 0.00 | 82 | 1012.2 |
| 20260904100111 | 78 | 133 | 1.0 | 8.0 | 0.00 | 0.00 | 0.00 | 82 | 1012.1 |
| 20260904095543 | 78 | 171 | 1.0 | 8.0 | 0.00 | 0.00 | 0.00 | 81 | 1012.1 |
| 20260904095043 | 78 | 236 | 1.0 | 4.0 | 0.00 | 0.00 | 0.00 | 81 | 1012.1 |
| 20260904094514 | 78 | 131 | 1.0 | 5.0 | 0.00 | 0.00 | 0.00 | 80 | 1012.1 |
| 20260904093950 | 78 | 154 | 1.0 | 5.0 | 0.00 | 0.00 | 0.00 | 80 | 1012.2 |
| 20260904093429 | 78 | 206 | 1.0 | 5.0 | 0.00 | 0.00 | 0.00 | 80 | 1012.1 |
| 20260904092928 | 78 | 184 | 1.0 | 5.0 | 0.00 | 0.00 | 0.00 | 80 | 1012.0 |
| 20260904092407 | 78 | 207 | 1.0 | 4.0 | 0.00 | 0.00 | 0.00 | 80 | 1012.0 |
| 20260904091907 | 78 | 142 | 1.0 | 8.0 | 0.00 | 0.00 | 0.00 | 79 | 1012.0 |
| 20260904091405 | 78 | 120 | 2.0 | 8.0 | 0.00 | 0.00 | 0.00 | 79 | 1012.0 |
| 20260904091121 | 78 | 228 | 1.0 | 7.0 | 0.00 | 0.00 | 0.00 | 79 | 1012.1 |
| 20260904090401 | 78 | 130 | 1.0 | 5.0 | 0.00 | 0.00 | 0.00 | 79 | 1012.1 |
| 20260904085833 | 78 | 158 | 2.0 | 5.0 | 0.00 | 0.00 | 0.00 | 79 | 1012.1 |
| 20260904085531 | 78 | 139 | 1.0 | 5.0 | 0.00 | 0.01 | 0.00 | 79 | 1012.1 |
| 20260904084740 | 78 | 201 | 1.0 | 5.0 | 0.00 | 0.01 | 0.00 | 79 | 1012.1 |
| 20260904084723 | 78 | 127 | 0.0 | 3.0 | 0.00 | 0.01 | 0.00 | 79 | 1012.0 |
| 20260904083734 | 78 | 122 | 1.0 | 6.0 | 0.00 | 0.01 | 0.00 | 78 | 1012.1 |